Time,TemperatureF,DewpointF,PressureIn,WindDirection,WindDirectionDegrees,WindSpeedMPH,WindSpeedGustMPH,Humidity,HourlyPrecipIn,Conditions,Clouds,dailyrainin,SoftwareType,DateUTC
2013-07-23 00:00:00,75.0,-99.9,-100.00,SW,232,12.0,14.0,-999,-99.99,,,-99.99,,2013-07-23 07:00:00,
2013-07-23 00:42:00,75.0,-99.9,-100.00,SW,232,12.0,14.0,-999,-99.99,,,-99.99,,2013-07-23 07:42:00,
2013-07-23 00:52:00,75.0,-99.9,-100.00,SW,232,12.0,14.0,-999,-99.99,,,-99.99,,2013-07-23 07:52:00,
2013-07-23 01:00:00,73.0,-99.9,-100.00,West,266,8.0,14.0,-999,-99.99,,,-99.99,,2013-07-23 08:00:00,
2013-07-23 01:22:00,74.0,-99.9,-100.00,WSW,244,4.0,10.0,-999,-99.99,,,-99.99,,2013-07-23 08:22:00,
2013-07-23 01:43:00,73.0,-99.9,-100.00,West,266,8.0,14.0,-999,-99.99,,,-99.99,,2013-07-23 08:43:00,
2013-07-23 01:52:00,73.0,-99.9,-100.00,West,266,8.0,14.0,-999,-99.99,,,-99.99,,2013-07-23 08:52:00,
2013-07-23 02:00:00,69.0,-99.9,-100.00,WSW,244,4.0,5.0,-999,-99.99,,,-99.99,,2013-07-23 09:00:00,
2013-07-23 02:11:00,72.0,-99.9,-100.00,West,269,4.0,6.0,-999,-99.99,,,-99.99,,2013-07-23 09:11:00,
2013-07-23 02:22:00,74.0,-99.9,-100.00,NNW,339,4.0,9.0,-999,-99.99,,,-99.99,,2013-07-23 09:22:00,
2013-07-23 02:43:00,69.0,-99.9,-100.00,WSW,244,4.0,5.0,-999,-99.99,,,-99.99,,2013-07-23 09:43:00,
2013-07-23 02:53:00,69.0,-99.9,-100.00,WSW,244,4.0,5.0,-999,-99.99,,,-99.99,,2013-07-23 09:53:00,
2013-07-23 03:00:00,69.0,-99.9,-100.00,West,263,9.0,9.0,-999,-99.99,,,-99.99,,2013-07-23 10:00:00,
2013-07-23 03:44:00,69.0,-99.9,-100.00,West,263,9.0,9.0,-999,-99.99,,,-99.99,,2013-07-23 10:44:00,
2013-07-23 03:52:00,69.0,-99.9,-100.00,West,263,9.0,9.0,-999,-99.99,,,-99.99,,2013-07-23 10:52:00,
2013-07-23 04:43:00,69.0,-99.9,-100.00,WSW,250,10.0,15.0,-999,-99.99,,,-99.99,,2013-07-23 11:43:00,
2013-07-23 04:52:00,69.0,-99.9,-100.00,WSW,250,10.0,15.0,-999,-99.99,,,-99.99,,2013-07-23 11:52:00,
2013-07-23 05:00:00,66.0,-99.9,-100.00,North,352,7.0,8.0,-999,-99.99,,,-99.99,,2013-07-23 12:00:00,
2013-07-23 05:43:00,68.0,-99.9,-100.00,WNW,297,3.0,8.0,-999,-99.99,,,-99.99,,2013-07-23 12:43:00,
2013-07-23 06:00:00,65.0,-99.9,-100.00,NW,320,3.0,6.0,-999,-99.99,,,-99.99,,2013-07-23 13:00:00,
2013-07-23 06:20:00,64.0,-99.9,-100.00,NW,315,0.0,4.0,-999,-99.99,,,-99.99,,2013-07-23 13:20:00,
2013-07-23 06:43:00,65.0,-99.9,-100.00,NW,320,3.0,6.0,-999,-99.99,,,-99.99,,2013-07-23 13:43:00,
2013-07-23 06:53:00,65.0,-99.9,-100.00,NW,320,3.0,6.0,-999,-99.99,,,-99.99,,2013-07-23 13:53:00,
2013-07-23 07:00:00,64.0,-99.9,-100.00,North,11,2.0,8.0,-999,-99.99,,,-99.99,,2013-07-23 14:00:00,
2013-07-23 07:54:00,64.0,-99.9,-100.00,North,11,2.0,8.0,-999,-99.99,,,-99.99,,2013-07-23 14:54:00,
2013-07-23 08:00:00,68.0,-99.9,-100.00,NW,316,6.0,8.0,-999,-99.99,,,-99.99,,2013-07-23 15:00:00,
2013-07-23 08:43:00,68.0,-99.9,-100.00,NW,316,6.0,8.0,-999,-99.99,,,-99.99,,2013-07-23 15:43:00,
2013-07-23 08:52:00,68.0,-99.9,-100.00,NW,316,6.0,8.0,-999,-99.99,,,-99.99,,2013-07-23 15:52:00,
2013-07-23 09:20:00,73.0,-99.9,-100.00,NNE,31,2.0,7.0,-999,-99.99,,,-99.99,,2013-07-23 16:20:00,
2013-07-23 09:43:00,72.0,-99.9,-100.00,WNW,300,5.0,7.0,-999,-99.99,,,-99.99,,2013-07-23 16:43:00,
2013-07-23 09:52:00,72.0,-99.9,-100.00,WNW,300,5.0,7.0,-999,-99.99,,,-99.99,,2013-07-23 16:52:00,
2013-07-23 10:00:00,73.0,-99.9,-100.00,North,353,2.0,7.0,-999,-99.99,,,-99.99,,2013-07-23 17:00:00,
2013-07-23 10:11:00,73.0,-99.9,-100.00,NNE,31,2.0,7.0,-999,-99.99,,,-99.99,,2013-07-23 17:11:00,
2013-07-23 10:42:00,73.0,-99.9,-100.00,North,353,2.0,7.0,-999,-99.99,,,-99.99,,2013-07-23 17:42:00,
2013-07-23 10:57:00,73.0,-99.9,-100.00,North,353,2.0,7.0,-999,-99.99,,,-99.99,,2013-07-23 17:57:00,
2013-07-23 11:49:00,76.0,-99.9,-100.00,North,5,3.0,8.0,-999,-99.99,,,-99.99,,2013-07-23 18:49:00,
2013-07-23 12:00:00,81.0,-99.9,-100.00,WNW,286,2.0,9.0,-999,-99.99,,,-99.99,,2013-07-23 19:00:00,
2013-07-23 12:50:00,81.0,-99.9,-100.00,WNW,286,2.0,9.0,-999,-99.99,,,-99.99,,2013-07-23 19:50:00,
2013-07-23 12:57:00,81.0,-99.9,-100.00,WNW,286,2.0,9.0,-999,-99.99,,,-99.99,,2013-07-23 19:57:00,
2013-07-23 13:48:00,86.0,-99.9,-100.00,WNW,283,4.0,8.0,-999,-99.99,,,-99.99,,2013-07-23 20:48:00,
2013-07-23 14:00:00,86.0,-99.9,-100.00,North,353,4.0,7.0,-999,-99.99,,,-99.99,,2013-07-23 21:00:00,
2013-07-23 14:05:00,86.0,-99.9,-100.00,North,352,5.0,6.0,-999,-99.99,,,-99.99,,2013-07-23 21:05:00,
2013-07-23 14:15:00,86.0,-99.9,-100.00,North,352,5.0,6.0,-999,-99.99,,,-99.99,,2013-07-23 21:15:00,
2013-07-23 14:48:00,86.0,-99.9,-100.00,North,353,4.0,7.0,-999,-99.99,,,-99.99,,2013-07-23 21:48:00,
2013-07-23 15:25:00,95.0,-99.9,-100.00,West,274,8.0,13.0,-999,-99.99,,,-99.99,,2013-07-23 22:25:00,
2013-07-23 15:48:00,95.0,-99.9,-100.00,West,261,14.0,14.0,-999,-99.99,,,-99.99,,2013-07-23 22:48:00,
2013-07-23 16:00:00,93.0,-99.9,-100.00,WSW,243,8.0,20.0,-999,-99.99,,,-99.99,,2013-07-23 23:00:00,
2013-07-23 16:03:00,92.0,-99.9,-100.00,West,272,14.0,14.0,-999,-99.99,,,-99.99,,2013-07-23 23:03:00,
2013-07-23 16:15:00,95.0,-99.9,-100.00,West,274,8.0,13.0,-999,-99.99,,,-99.99,,2013-07-23 23:15:00,
2013-07-23 17:00:00,95.0,-99.9,-100.00,West,265,10.0,18.0,-999,-99.99,,,-99.99,,2013-07-24 00:00:00,
2013-07-23 17:51:00,95.0,-99.9,-100.00,West,265,10.0,18.0,-999,-99.99,,,-99.99,,2013-07-24 00:51:00,
2013-07-23 17:59:00,95.0,-99.9,-100.00,West,265,10.0,18.0,-999,-99.99,,,-99.99,,2013-07-24 00:59:00,
2013-07-23 18:00:00,95.0,-99.9,-100.00,SW,234,18.0,19.0,-999,-99.99,,,-99.99,,2013-07-24 01:00:00,
2013-07-23 19:00:00,92.0,-99.9,-100.00,SW,236,8.0,20.0,-999,-99.99,,,-99.99,,2013-07-24 02:00:00,
2013-07-23 19:40:00,92.0,-99.9,-100.00,SW,236,8.0,20.0,-999,-99.99,,,-99.99,,2013-07-24 02:40:00,
2013-07-23 19:50:00,92.0,-99.9,-100.00,SW,236,8.0,20.0,-999,-99.99,,,-99.99,,2013-07-24 02:50:00,
2013-07-23 20:00:00,88.0,-99.9,-100.00,SW,236,6.0,19.0,-999,-99.99,,,-99.99,,2013-07-24 03:00:00,
2013-07-23 20:40:00,88.0,-99.9,-100.00,SW,236,6.0,19.0,-999,-99.99,,,-99.99,,2013-07-24 03:40:00,
2013-07-23 20:47:00,88.0,-99.9,-100.00,SW,236,6.0,19.0,-999,-99.99,,,-99.99,,2013-07-24 03:47:00,
2013-07-23 20:59:00,88.0,-99.9,-100.00,SW,236,6.0,19.0,-999,-99.99,,,-99.99,,2013-07-24 03:59:00,
2013-07-23 21:00:00,86.0,-99.9,-100.00,WSW,243,7.0,10.0,-999,-99.99,,,-99.99,,2013-07-24 04:00:00,
2013-07-23 21:44:00,86.0,-99.9,-100.00,WSW,243,7.0,10.0,-999,-99.99,,,-99.99,,2013-07-24 04:44:00,
2013-07-23 21:53:00,86.0,-99.9,-100.00,WSW,243,7.0,10.0,-999,-99.99,,,-99.99,,2013-07-24 04:53:00,
2013-07-23 22:10:00,82.0,-99.9,-100.00,WNW,297,5.0,7.0,-999,-99.99,,,-99.99,,2013-07-24 05:10:00,
2013-07-23 22:22:00,83.0,-99.9,-100.00,NW,315,5.0,9.0,-999,-99.99,,,-99.99,,2013-07-24 05:22:00,
2013-07-23 22:33:00,83.0,-99.9,-100.00,NW,315,5.0,9.0,-999,-99.99,,,-99.99,,2013-07-24 05:33:00,
2013-07-23 22:43:00,81.0,-99.9,-100.00,WSW,256,2.0,9.0,-999,-99.99,,,-99.99,,2013-07-24 05:43:00,
2013-07-23 22:52:00,82.0,-99.9,-100.00,WNW,297,5.0,7.0,-999,-99.99,,,-99.99,,2013-07-24 05:52:00,
2013-07-23 23:01:00,82.0,-99.9,-100.00,WNW,297,5.0,7.0,-999,-99.99,,,-99.99,,2013-07-24 06:01:00,
2013-07-23 23:30:00,80.0,-99.9,-100.00,WSW,252,9.0,13.0,-999,-99.99,,,-99.99,,2013-07-24 06:30:00,
2013-07-23 23:43:00,82.0,-99.9,-100.00,West,275,5.0,12.0,-999,-99.99,,,-99.99,,2013-07-24 06:43:00,
2013-07-23 23:53:00,81.0,-99.9,-100.00,West,269,7.0,12.0,-999,-99.99,,,-99.99,,2013-07-24 06:53:00,